Location: The Saddle
(36.8333°N, 80.3417°W)
Time: 09:39:34
(UTC-04:00)

Vanguard 2 Rocket - Pass Details

Date: 06 February 2023
Orbit: 555 x 3316 km, 32.9° (Epoch: 25 March)

Event Time Altitude Azimuth Distance (km) Brightness Sun altitude
Rises 06:28:12 0° 203° (SSW) 5,758 10.9 -10.7°
Reaches altitude 10° 06:34:54 10° 183° (S) 4,061 10.3 -9.4°
Maximum altitude 06:39:30 14° 156° (SSE) 3,245 10.3 -8.5°
Drops below altitude 10° 06:43:12 10° 128° (SE) 3,121 10.9 -7.8°
Sets 06:47:04 0° 102° (ESE) 3,640 12.7 -7.0°
